User: anonymous   Login
Location: Unspecified
(0.0000°N, 0.0000°E)
Time: 03:24:35
(UTC+00:00)
Language:

First-Move - Orbit

View from above orbital plane
View from above orbital plane
View from above satellite
View from above satellite

Ground track
Ground track

The orbit data is extracted from the following two-line orbital elements,

1 39439U 13066Z   20185.70364251 +.00000288 +00000-0 +41367-4 0  9991
2 39439 097.5721 183.4908 0063934 222.9783 136.6427 14.82156302356287
Epoch (UTC): 03 July 2020 16:53:14
Eccentricity: 0.0063934
inclination: 97.5721°
perigee height: 578 km
apogee height: 667 km
right ascension of ascending node: 183.4908°
argument of perigee: 222.9783°
revolutions per day: 14.82156302
mean anomaly at epoch: 136.6427°
orbit number at epoch: 35628

The dashed part of the orbit path shows where the satellite is in the earth's shadow,  

DLR